QPF
0.00 0.00 0.00 0.00 0.00 0.00 0.00 0.00 0.00 0.00 0.00 0.00 0.01 0.01 0.00 0.00 0.00 0.00 0.00 0.00 0.00 0.00 0.00 0.00 0.00 0.00 0.00 0.00 0.00 0.00 0.00 0.00 0.00 0.00 0.00 0.00 0.00 0.00 0.00 0.00 0.00 0.00 0.01
0.00 0.00 0.00 0.00 0.00 0.00 0.00 0.00 0.00 0.00 0.00 0.00 0.00 0.01 0.00 0.00 0.00 0.00 0.00 0.00 0.00 0.00 0.00 0.00 0.00 0.00 0.00 0.00 0.00 0.00 0.00 0.00 0.00 0.00 0.00 0.00 0.00 0.00 0.00 0.00 0.00 0.01 0.01
0.00 0.00 0.00 0.00 0.00 0.00 0.00 0.00 0.00 0.00 0.00 0.00 0.00 0.01 0.00 0.00 0.00 0.00 0.00 0.00 0.00 0.00 0.00 0.00 0.00 0.00 0.00 0.00 0.00 0.00 0.00 0.00 0.00 0.00 0.01 0.01 0.01 0.01 0.01 0.01 0.00 0.01 0.01
0.00 0.00 0.00 0.00 0.00 0.00 0.00 0.00 0.00 0.00 0.00 0.00 0.00 0.00 0.00 0.00 0.00 0.00 0.00 0.00 0.00 0.00 0.00 0.00 0.00 0.00 0.00 0.00 0.00 0.00 0.00 0.00 0.00 0.01 0.03 0.04 0.03 0.04 0.04 0.03 0.02 0.01 0.01
0.00 0.00 0.00 0.00 0.00 0.00 0.00 0.00 0.00 0.00 0.00 0.00 0.00 0.00 0.00 0.00 0.00 0.00 0.00 0.00 0.01 0.01 0.01 0.01 0.01 0.00 0.00 0.00 0.00 0.00 0.00 0.00 0.01 0.03 0.07 0.09 0.08 0.07 0.06 0.06 0.05 0.02 0.01
0.00 0.00 0.00 0.00 0.00 0.00 0.00 0.00 0.00 0.00 0.00 0.00 0.00 0.00 0.00 0.00 0.00 0.00 0.00 0.01 0.01 0.02 0.02 0.01 0.01 0.00 0.00 0.00 0.00 0.00 0.00 0.00 0.03 0.08 0.12 0.19 0.16 0.11 0.07 0.06 0.06 0.03 0.01
0.00 0.00 0.00 0.00 0.00 0.00 0.00 0.00 0.00 0.00 0.00 0.00 0.00 0.00 0.00 0.00 0.00 0.00 0.01 0.01 0.01 0.01 0.01 0.00 0.00 0.00 0.00 0.00 0.00 0.00 0.00 0.00 0.01 0.05 0.11 0.21 0.17 0.12 0.08 0.05 0.03 0.02 0.00
0.00 0.00 0.00 0.00 0.00 0.00 0.00 0.00 0.00 0.00 0.00 0.00 0.00 0.00 0.00 0.00 0.00 0.01 0.01 0.01 0.02 0.02 0.02 0.01 0.00 0.00 0.00 0.00 0.00 0.00 0.00 0.00 0.00 0.03 0.06 0.08 0.06 0.07 0.05 0.03 0.01 0.01 0.00
0.00 0.00 0.00 0.00 0.00 0.00 0.00 0.00 0.00 0.00 0.00 0.00 0.00 0.00 0.00 0.00 0.01 0.01 0.01 0.02 0.03 0.03 0.02 0.00 0.00 0.00 0.00 0.00 0.00 0.00 0.00 0.00 0.00 0.02 0.03 0.02 0.02 0.02 0.01 0.01 0.00 0.00 0.00
0.00 0.00 0.00 0.00 0.00 0.00 0.00 0.00 0.00 0.00 0.00 0.00 0.00 0.01 0.01 0.00 0.00 0.00 0.01 0.02 0.03 0.03 0.01 0.00 0.00 0.00 0.00 0.00 0.00 0.00 0.00 0.00 0.00 0.00 0.00 0.00 0.00 0.00 0.00 0.00 0.00 0.00 0.00
0.00 0.00 0.00 0.00 0.00 0.00 0.00 0.00 0.00 0.00 0.00 0.00 0.00 0.01 0.00 0.00 0.00 0.00 0.01 0.02 0.03 0.02 0.01 0.00 0.00 0.00 0.00 0.00 0.00 0.00 0.00 0.00 0.00 0.00 0.00 0.00 0.00 0.00 0.00 0.00 0.00 0.00 0.00
0.00 0.00 0.00 0.00 0.00 0.02 0.01 0.00 0.00 0.00 0.00 0.00 0.00 0.00 0.00 0.00 0.00 0.00 0.01 0.01 0.01 0.01 0.00 0.00 0.00 0.00 0.00 0.00 0.00 0.00 0.00 0.00 0.00 0.00 0.00 0.00 0.00 0.00 0.00 0.00 0.00 0.00 0.00
0.00 0.00 0.00 0.01 0.02 0.08 0.02 0.00 0.00 0.00 0.00 0.00 0.00 0.01 0.00 0.00 0.01 0.01 0.01 0.01 0.02 0.01 0.00 0.00 0.00 0.00 0.00 0.00 0.00 0.00 0.00 0.00 0.00 0.00 0.00 0.00 0.00 0.00 0.00 0.00 0.00 0.00 0.00
0.00 0.00 0.00 0.00 0.01 0.01 0.01 0.01 0.01 0.01 0.00 0.00 0.01 0.01 0.01 0.02 0.03 0.04 0.05 0.04 0.05 0.03 0.01 0.01 0.00 0.00 0.00 0.00 0.00 0.00 0.00 0.00 0.00 0.00 0.00 0.00 0.00 0.01 0.00 0.00 0.00 0.00 0.00
0.01 0.00 0.00 0.00 0.00 0.00 0.01 0.01 0.01 0.01 0.00 0.00 0.00 0.00 0.01 0.02 0.03 0.04 0.05 0.04 0.04 0.03 0.02 0.01 0.00 0.00 0.00 0.00 0.00 0.00 0.00 0.00 0.00 0.00 0.00 0.00 0.00 0.01 0.01 0.01 0.01 0.01 0.01
0.01 0.00 0.00 0.00 0.00 0.00 0.00 0.00 0.00 0.01 0.00 0.00 0.00 0.00 0.00 0.00 0.01 0.01 0.01 0.01 0.01 0.02 0.02 0.02 0.01 0.00 0.00 0.00 0.00 0.00 0.00 0.00 0.00 0.00 0.00 0.00 0.00 0.01 0.01 0.01 0.01 0.01 0.01
0.01 0.00 0.00 0.00 0.00 0.00 0.00 0.00 0.00 0.00 0.00 0.00 0.00 0.00 0.00 0.00 0.00 0.00 0.00 0.00 0.00 0.01 0.02 0.02 0.01 0.00 0.00 0.00 0.00 0.00 0.00 0.00 0.00 0.00 0.00 0.00 0.00 0.00 0.01 0.01 0.01 0.01 0.01
0.00 0.00 0.00 0.00 0.00 0.00 0.00 0.00 0.00 0.00 0.00 0.00 0.00 0.00 0.00 0.00 0.00 0.00 0.00 0.00 0.00 0.00 0.00 0.00 0.00 0.00 0.00 0.00 0.00 0.00 0.00 0.00 0.00 0.00 0.00 0.00 0.00 0.00 0.00 0.01 0.01 0.01 0.01
0.00 0.00 0.00 0.00 0.00 0.00 0.00 0.00 0.00 0.00 0.00 0.00 0.00 0.00 0.00 0.00 0.00 0.00 0.00 0.00 0.00 0.00 0.00 0.00 0.00 0.00 0.00 0.00 0.00 0.00 0.00 0.00 0.00 0.00 0.00 0.00 0.00 0.00 0.00 0.00 0.00 0.01 0.01
0.00 0.00 0.00 0.00 0.00 0.00 0.00 0.00 0.00 0.00 0.00 0.00 0.00 0.00 0.01 0.00 0.00 0.00 0.00 0.00 0.00 0.00 0.00 0.00 0.00 0.00 0.00 0.00 0.00 0.00 0.00 0.00 0.00 0.00 0.00 0.00 0.00 0.00 0.00 0.00 0.00 0.00 0.01
0.01 0.01 0.00 0.00 0.01 0.01 0.00 0.00 0.00 0.00 0.01 0.02 0.04 0.05 0.04 0.03 0.02 0.01 0.01 0.00 0.00 0.00 0.00 0.00 0.00 0.00 0.00 0.00 0.00 0.00 0.00 0.00 0.00 0.00 0.00 0.00 0.00 0.00 0.00 0.00 0.00 0.00 0.00
0.02 0.02 0.01 0.01 0.04 0.05 0.03 0.01 0.01 0.02 0.06 0.12 0.16 0.14 0.10 0.09 0.08 0.06 0.04 0.02 0.01 0.00 0.00 0.00 0.00 0.00 0.00 0.00 0.00 0.00 0.00 0.00 0.00 0.00 0.00 0.00 0.00 0.00 0.00 0.00 0.00 0.00 0.00
0.03 0.03 0.03 0.04 0.10 0.13 0.08 0.05 0.06 0.10 0.16 0.22 0.23 0.22 0.20 0.16 0.11 0.06 0.03 0.02 0.01 0.00 0.00 0.00 0.00 0.00 0.00 0.00 0.00 0.00 0.00 0.00 0.00 0.00 0.00 0.00 0.00 0.00 0.00 0.00 0.00 0.00 0.00
0.04 0.04 0.03 0.06 0.12 0.15 0.13 0.11 0.18 0.22 0.25 0.30 0.30 0.28 0.20 0.12 0.07 0.03 0.01 0.00 0.00 0.00 0.00 0.00 0.00 0.00 0.00 0.00 0.00 0.00 0.00 0.00 0.00 0.00 0.00 0.00 0.00 0.00 0.00 0.00 0.00 0.00 0.00
0.06 0.05 0.03 0.07 0.13 0.18 0.21 0.25 0.28 0.32 0.37 0.39 0.34 0.24 0.13 0.06 0.03 0.01 0.00 0.00 0.00 0.00 0.00 0.00 0.00 0.00 0.00 0.00 0.00 0.00 0.00 0.00 0.00 0.00 0.00 0.00 0.00 0.00 0.00 0.00 0.00 0.00 0.00
0.04 0.03 0.05 0.08 0.14 0.17 0.19 0.24 0.32 0.38 0.39 0.36 0.27 0.15 0.07 0.03 0.01 0.00 0.00 0.00 0.00 0.00 0.00 0.00 0.00 0.00 0.00 0.00 0.00 0.00 0.00 0.00 0.00 0.00 0.00 0.00 0.00 0.00 0.00 0.00 0.00 0.00 0.00
MSLP
1014.29 1013.73 1013.32 1013.13 1013.14 1013.32 1013.59 1013.89 1014.16 1014.36 1014.49 1014.57 1014.65 1014.76 1014.91 1015.13 1015.38 1015.65 1015.89 1016.10 1016.25 1016.36 1016.45 1016.53 1016.64 1016.78 1016.95 1017.13 1017.30 1017.44 1017.52 1017.56 1017.55 1017.51 1017.46 1017.42 1017.41 1017.42 1017.46 1017.52 1017.59 1017.66 1017.74
1014.00 1013.55 1013.25 1013.15 1013.23 1013.45 1013.74 1014.03 1014.28 1014.46 1014.59 1014.69 1014.80 1014.96 1015.18 1015.44 1015.73 1016.01 1016.26 1016.44 1016.56 1016.64 1016.69 1016.75 1016.84 1016.96 1017.10 1017.24 1017.37 1017.45 1017.50 1017.50 1017.48 1017.45 1017.42 1017.42 1017.44 1017.48 1017.55 1017.61 1017.68 1017.74 1017.82
1013.63 1013.30 1013.13 1013.13 1013.30 1013.58 1013.90 1014.20 1014.44 1014.62 1014.74 1014.85 1014.99 1015.18 1015.43 1015.72 1016.02 1016.29 1016.50 1016.65 1016.74 1016.79 1016.82 1016.87 1016.95 1017.05 1017.17 1017.28 1017.36 1017.40 1017.41 1017.39 1017.36 1017.35 1017.36 1017.40 1017.47 1017.56 1017.65 1017.74 1017.81 1017.88 1017.94
1013.24 1013.05 1013.01 1013.14 1013.40 1013.74 1014.10 1014.41 1014.65 1014.82 1014.94 1015.05 1015.20 1015.40 1015.66 1015.94 1016.21 1016.45 1016.63 1016.74 1016.79 1016.82 1016.85 1016.91 1016.99 1017.09 1017.20 1017.29 1017.34 1017.35 1017.33 1017.29 1017.27 1017.28 1017.32 1017.42 1017.54 1017.67 1017.79 1017.90 1017.98 1018.04 1018.11
1012.93 1012.87 1012.96 1013.19 1013.54 1013.94 1014.32 1014.64 1014.87 1015.03 1015.14 1015.26 1015.40 1015.60 1015.84 1016.09 1016.33 1016.52 1016.65 1016.72 1016.76 1016.79 1016.83 1016.91 1017.02 1017.14 1017.26 1017.34 1017.37 1017.36 1017.31 1017.27 1017.24 1017.27 1017.35 1017.48 1017.64 1017.80 1017.95 1018.06 1018.15 1018.22 1018.28
1012.76 1012.81 1012.99 1013.32 1013.72 1014.16 1014.55 1014.86 1015.08 1015.22 1015.32 1015.43 1015.58 1015.76 1015.98 1016.21 1016.41 1016.55 1016.64 1016.68 1016.70 1016.74 1016.81 1016.92 1017.07 1017.23 1017.37 1017.46 1017.48 1017.45 1017.39 1017.33 1017.31 1017.34 1017.44 1017.59 1017.77 1017.94 1018.09 1018.21 1018.29 1018.35 1018.41
1012.74 1012.87 1013.13 1013.51 1013.95 1014.39 1014.76 1015.05 1015.24 1015.36 1015.45 1015.56 1015.70 1015.89 1016.10 1016.31 1016.47 1016.59 1016.64 1016.66 1016.68 1016.73 1016.83 1016.99 1017.18 1017.38 1017.54 1017.64 1017.66 1017.63 1017.55 1017.48 1017.44 1017.48 1017.57 1017.72 1017.90 1018.06 1018.20 1018.29 1018.35 1018.40 1018.46
1012.84 1013.02 1013.33 1013.73 1014.18 1014.59 1014.94 1015.18 1015.33 1015.43 1015.52 1015.63 1015.78 1015.98 1016.20 1016.41 1016.56 1016.66 1016.70 1016.71 1016.73 1016.79 1016.92 1017.10 1017.33 1017.55 1017.74 1017.85 1017.87 1017.82 1017.74 1017.66 1017.61 1017.63 1017.71 1017.84 1018.00 1018.14 1018.24 1018.30 1018.34 1018.36 1018.41
1012.97 1013.20 1013.54 1013.95 1014.37 1014.75 1015.04 1015.24 1015.35 1015.43 1015.51 1015.64 1015.82 1016.05 1016.30 1016.52 1016.69 1016.78 1016.82 1016.83 1016.84 1016.91 1017.05 1017.24 1017.48 1017.71 1017.90 1018.01 1018.03 1017.98 1017.89 1017.80 1017.74 1017.75 1017.81 1017.92 1018.04 1018.15 1018.21 1018.24 1018.24 1018.25 1018.28
1013.06 1013.32 1013.69 1014.10 1014.51 1014.84 1015.08 1015.23 1015.30 1015.36 1015.45 1015.60 1015.82 1016.09 1016.38 1016.63 1016.82 1016.93 1016.97 1016.98 1016.99 1017.05 1017.17 1017.36 1017.58 1017.80 1017.97 1018.07 1018.09 1018.04 1017.95 1017.86 1017.80 1017.80 1017.85 1017.94 1018.03 1018.10 1018.13 1018.13 1018.10 1018.09 1018.11
1013.02 1013.33 1013.73 1014.16 1014.54 1014.85 1015.05 1015.15 1015.20 1015.25 1015.35 1015.52 1015.78 1016.09 1016.42 1016.71 1016.92 1017.05 1017.10 1017.11 1017.11 1017.16 1017.25 1017.41 1017.60 1017.79 1017.93 1018.01 1018.02 1017.97 1017.89 1017.81 1017.76 1017.77 1017.82 1017.90 1017.97 1018.02 1018.03 1018.00 1017.96 1017.93 1017.94
1012.81 1013.19 1013.63 1014.08 1014.46 1014.75 1014.93 1015.02 1015.06 1015.11 1015.22 1015.42 1015.70 1016.04 1016.40 1016.71 1016.96 1017.10 1017.17 1017.18 1017.18 1017.20 1017.27 1017.38 1017.53 1017.67 1017.79 1017.85 1017.85 1017.80 1017.74 1017.68 1017.66 1017.68 1017.74 1017.82 1017.89 1017.92 1017.92 1017.88 1017.83 1017.79 1017.80
1012.43 1012.88 1013.37 1013.85 1014.25 1014.55 1014.74 1014.83 1014.88 1014.95 1015.07 1015.29 1015.58 1015.94 1016.30 1016.63 1016.89 1017.05 1017.13 1017.16 1017.16 1017.18 1017.22 1017.30 1017.41 1017.51 1017.59 1017.63 1017.63 1017.60 1017.55 1017.53 1017.53 1017.57 1017.65 1017.73 1017.80 1017.84 1017.84 1017.79 1017.74 1017.70 1017.70
1011.92 1012.42 1012.95 1013.47 1013.91 1014.24 1014.46 1014.59 1014.68 1014.77 1014.91 1015.13 1015.43 1015.77 1016.13 1016.45 1016.71 1016.90 1017.00 1017.05 1017.08 1017.11 1017.15 1017.22 1017.30 1017.37 1017.43 1017.46 1017.46 1017.43 1017.41 1017.41 1017.44 1017.50 1017.59 1017.67 1017.75 1017.78 1017.77 1017.73 1017.68 1017.63 1017.62
1011.32 1011.85 1012.42 1012.97 1013.45 1013.83 1014.11 1014.30 1014.44 1014.58 1014.75 1014.98 1015.26 1015.58 1015.90 1016.21 1016.47 1016.66 1016.80 1016.90 1016.97 1017.03 1017.11 1017.18 1017.26 1017.33 1017.38 1017.40 1017.41 1017.40 1017.39 1017.40 1017.44 1017.51 1017.59 1017.67 1017.73 1017.75 1017.74 1017.69 1017.63 1017.58 1017.55
1010.69 1011.22 1011.80 1012.36 1012.88 1013.32 1013.68 1013.96 1014.19 1014.40 1014.61 1014.85 1015.11 1015.39 1015.68 1015.95 1016.20 1016.42 1016.60 1016.75 1016.89 1017.02 1017.14 1017.26 1017.36 1017.45 1017.50 1017.53 1017.54 1017.54 1017.54 1017.55 1017.58 1017.63 1017.69 1017.74 1017.76 1017.76 1017.73 1017.67 1017.60 1017.53 1017.48
1010.10 1010.59 1011.14 1011.71 1012.26 1012.76 1013.22 1013.61 1013.95 1014.24 1014.52 1014.77 1015.02 1015.27 1015.52 1015.76 1015.99 1016.23 1016.45 1016.68 1016.89 1017.10 1017.30 1017.47 1017.62 1017.73 1017.80 1017.84 1017.86 1017.86 1017.86 1017.86 1017.87 1017.88 1017.89 1017.89 1017.87 1017.82 1017.75 1017.67 1017.58 1017.49 1017.42
1009.57 1010.01 1010.51 1011.05 1011.62 1012.20 1012.75 1013.26 1013.73 1014.14 1014.49 1014.78 1015.04 1015.26 1015.47 1015.68 1015.91 1016.16 1016.43 1016.72 1017.01 1017.31 1017.58 1017.81 1018.01 1018.15 1018.25 1018.31 1018.34 1018.34 1018.34 1018.32 1018.29 1018.25 1018.20 1018.13 1018.04 1017.94 1017.82 1017.71 1017.59 1017.49 1017.40
1009.15 1009.51 1009.95 1010.46 1011.04 1011.67 1012.32 1012.97 1013.57 1014.11 1014.55 1014.91 1015.19 1015.40 1015.59 1015.78 1015.99 1016.25 1016.56 1016.90 1017.26 1017.62 1017.95 1018.25 1018.48 1018.66 1018.79 1018.87 1018.91 1018.92 1018.91 1018.87 1018.81 1018.72 1018.60 1018.46 1018.30 1018.13 1017.97 1017.82 1017.68 1017.56 1017.46
1008.84 1009.14 1009.51 1009.99 1010.57 1011.25 1012.00 1012.77 1013.51 1014.17 1014.73 1015.16 1015.47 1015.70 1015.88 1016.06 1016.26 1016.52 1016.84 1017.22 1017.62 1018.02 1018.40 1018.72 1018.99 1019.19 1019.34 1019.44 1019.50 1019.52 1019.51 1019.47 1019.38 1019.25 1019.08 1018.87 1018.64 1018.42 1018.20 1018.02 1017.86 1017.73 1017.62
1008.67 1008.92 1009.25 1009.69 1010.27 1010.99 1011.81 1012.68 1013.55 1014.33 1015.00 1015.51 1015.88 1016.13 1016.32 1016.49 1016.69 1016.94 1017.27 1017.64 1018.06 1018.47 1018.85 1019.19 1019.47 1019.68 1019.84 1019.96 1020.04 1020.09 1020.10 1020.06 1019.96 1019.81 1019.59 1019.34 1019.06 1018.78 1018.52 1018.30 1018.13 1017.99 1017.87
1008.66 1008.90 1009.19 1009.61 1010.18 1010.91 1011.79 1012.74 1013.69 1014.58 1015.33 1015.92 1016.35 1016.64 1016.85 1017.03 1017.22 1017.47 1017.78 1018.14 1018.54 1018.93 1019.30 1019.61 1019.88 1020.08 1020.25 1020.38 1020.49 1020.57 1020.61 1020.59 1020.51 1020.35 1020.11 1019.82 1019.50 1019.18 1018.89 1018.64 1018.45 1018.30 1018.17
1008.82 1009.07 1009.36 1009.75 1010.31 1011.04 1011.92 1012.91 1013.92 1014.87 1015.69 1016.35 1016.83 1017.16 1017.40 1017.59 1017.79 1018.03 1018.32 1018.66 1019.02 1019.37 1019.69 1019.97 1020.20 1020.39 1020.55 1020.70 1020.83 1020.94 1021.02 1021.04 1020.98 1020.83 1020.59 1020.28 1019.93 1019.58 1019.25 1018.98 1018.76 1018.59 1018.44
1009.16 1009.45 1009.74 1010.11 1010.64 1011.34 1012.21 1013.19 1014.21 1015.18 1016.03 1016.73 1017.25 1017.63 1017.90 1018.12 1018.33 1018.56 1018.84 1019.14 1019.46 1019.76 1020.03 1020.25 1020.44 1020.60 1020.75 1020.90 1021.05 1021.20 1021.31 1021.36 1021.33 1021.20 1020.96 1020.64 1020.28 1019.90 1019.54 1019.23 1018.97 1018.77 1018.60
1009.68 1010.01 1010.30 1010.66 1011.14 1011.79 1012.60 1013.53 1014.52 1015.47 1016.32 1017.03 1017.58 1017.99 1018.30 1018.55 1018.78 1019.02 1019.28 1019.56 1019.83 1020.08 1020.29 1020.47 1020.61 1020.73 1020.86 1021.01 1021.17 1021.34 1021.47 1021.55 1021.54 1021.42 1021.20 1020.87 1020.49 1020.08 1019.69 1019.33 1019.04 1018.80 1018.59
1010.35 1010.70 1011.00 1011.32 1011.76 1012.34 1013.07 1013.92 1014.83 1015.72 1016.54 1017.24 1017.80 1018.23 1018.57 1018.85 1019.11 1019.36 1019.63 1019.88 1020.13 1020.33 1020.50 1020.62 1020.72 1020.81 1020.92 1021.05 1021.21 1021.37 1021.52 1021.60 1021.61 1021.49 1021.26 1020.93 1020.53 1020.10 1019.67 1019.28 1018.93 1018.64 1018.38
Thickness
5778 5781 5782 5782 5781 5779 5778 5776 5774 5771 5769 5768 5767 5765 5764 5764 5763 5762 5761 5759 5757 5756 5755 5754 5753 5752 5751 5749 5748 5748 5748 5748 5748 5747 5746 5745 5745 5744 5744 5743 5742 5742 5742
5781 5779 5778 5779 5777 5776 5774 5772 5770 5767 5765 5763 5761 5760 5759 5758 5758 5758 5757 5756 5755 5753 5752 5751 5749 5749 5748 5746 5745 5745 5745 5745 5744 5744 5744 5743 5742 5741 5741 5740 5739 5738 5737
5781 5777 5776 5775 5774 5772 5770 5768 5766 5763 5761 5759 5757 5755 5754 5753 5752 5752 5752 5752 5751 5750 5748 5747 5746 5745 5744 5743 5742 5741 5741 5742 5741 5741 5741 5740 5739 5738 5738 5736 5734 5733 5732
5780 5775 5773 5772 5770 5768 5767 5765 5763 5760 5757 5756 5754 5752 5750 5749 5748 5748 5748 5748 5747 5746 5745 5743 5742 5741 5740 5739 5738 5737 5737 5738 5738 5738 5739 5737 5735 5734 5733 5732 5730 5729 5727
5777 5773 5771 5768 5766 5764 5763 5761 5759 5757 5755 5754 5751 5749 5747 5746 5745 5745 5745 5744 5743 5742 5740 5739 5738 5737 5736 5735 5734 5733 5733 5734 5735 5735 5735 5733 5731 5729 5728 5727 5726 5724 5723
5776 5772 5769 5766 5764 5762 5759 5757 5755 5754 5752 5751 5749 5746 5745 5744 5743 5742 5741 5740 5738 5737 5736 5734 5733 5733 5732 5731 5730 5729 5728 5730 5732 5732 5730 5728 5726 5724 5723 5722 5721 5720 5719
5776 5772 5768 5765 5762 5760 5757 5755 5752 5750 5749 5747 5745 5743 5742 5741 5740 5738 5737 5736 5734 5733 5732 5731 5729 5729 5728 5727 5726 5724 5723 5725 5728 5728 5726 5724 5721 5719 5718 5718 5717 5716 5715
5778 5772 5768 5764 5761 5758 5755 5753 5750 5748 5746 5745 5744 5743 5741 5740 5738 5736 5734 5732 5731 5730 5729 5727 5726 5725 5724 5723 5722 5719 5717 5721 5723 5723 5721 5718 5716 5715 5714 5714 5713 5712 5711
5779 5773 5768 5764 5760 5757 5754 5751 5749 5747 5745 5743 5742 5741 5739 5737 5735 5733 5731 5730 5729 5727 5726 5725 5723 5722 5720 5719 5717 5714 5712 5715 5717 5716 5715 5714 5713 5711 5710 5709 5708 5707 5706
5777 5773 5768 5764 5760 5757 5754 5751 5748 5746 5744 5742 5740 5738 5737 5735 5734 5732 5730 5728 5727 5725 5723 5722 5719 5717 5716 5714 5713 5711 5709 5709 5710 5710 5709 5709 5708 5707 5705 5704 5703 5702 5701
5774 5771 5768 5764 5760 5757 5754 5751 5748 5745 5743 5741 5738 5737 5735 5734 5732 5730 5728 5726 5724 5722 5720 5717 5714 5712 5711 5711 5710 5709 5707 5707 5707 5706 5704 5703 5702 5702 5701 5700 5699 5698 5696
5773 5770 5768 5765 5761 5758 5755 5752 5749 5746 5743 5740 5738 5736 5734 5732 5730 5728 5725 5722 5721 5719 5717 5713 5710 5709 5709 5709 5709 5708 5706 5706 5706 5703 5701 5699 5697 5697 5696 5695 5694 5693 5692
5778 5775 5771 5767 5763 5759 5757 5752 5749 5746 5743 5740 5737 5735 5733 5730 5727 5725 5722 5719 5718 5716 5714 5711 5708 5707 5706 5706 5705 5704 5702 5702 5702 5700 5698 5696 5694 5693 5692 5691 5689 5688 5687
5781 5778 5775 5770 5765 5761 5758 5753 5749 5746 5743 5740 5737 5734 5731 5728 5725 5723 5720 5718 5716 5714 5712 5710 5707 5705 5703 5702 5701 5700 5698 5697 5696 5695 5693 5690 5689 5688 5687 5686 5684 5683 5681
5785 5782 5778 5774 5769 5763 5758 5754 5750 5746 5743 5740 5737 5734 5731 5728 5724 5721 5718 5715 5713 5711 5709 5708 5706 5704 5701 5700 5699 5697 5693 5690 5688 5687 5685 5683 5682 5681 5679 5678 5677 5676 5674
5788 5784 5781 5776 5771 5766 5760 5755 5752 5747 5744 5740 5737 5734 5731 5728 5723 5719 5715 5712 5711 5710 5708 5705 5704 5701 5698 5696 5693 5691 5688 5684 5680 5678 5677 5675 5674 5673 5672 5670 5669 5668 5666
5790 5786 5780 5776 5770 5766 5762 5758 5754 5749 5745 5741 5736 5733 5729 5726 5723 5718 5713 5709 5706 5705 5702 5699 5696 5694 5691 5688 5685 5683 5681 5678 5674 5670 5667 5665 5664 5663 5662 5662 5661 5659 5658
5791 5784 5780 5777 5768 5763 5761 5758 5754 5749 5743 5738 5733 5729 5725 5721 5717 5711 5705 5702 5699 5696 5692 5689 5685 5682 5678 5676 5674 5673 5671 5669 5667 5664 5660 5657 5654 5652 5651 5650 5650 5650 5648
5792 5784 5778 5775 5766 5759 5756 5753 5748 5743 5738 5732 5728 5723 5719 5715 5710 5703 5697 5693 5690 5687 5683 5680 5675 5671 5667 5665 5664 5663 5660 5657 5655 5653 5650 5647 5643 5640 5637 5636 5636 5636 5635
5788 5782 5776 5771 5763 5756 5751 5745 5738 5732 5727 5723 5719 5716 5713 5708 5703 5697 5690 5685 5682 5678 5674 5670 5665 5661 5657 5654 5652 5650 5646 5643 5640 5637 5634 5631 5628 5625 5622 5620 5619 5618 5617
5780 5775 5771 5766 5760 5755 5749 5741 5732 5723 5717 5711 5707 5705 5703 5698 5693 5688 5681 5676 5672 5667 5663 5659 5654 5648 5643 5640 5636 5633 5631 5628 5625 5621 5619 5616 5612 5609 5607 5604 5602 5600 5599
5773 5769 5765 5762 5756 5753 5746 5740 5732 5721 5709 5702 5695 5690 5687 5684 5680 5674 5669 5665 5661 5656 5650 5645 5640 5633 5627 5624 5620 5616 5611 5611 5609 5607 5603 5600 5596 5593 5591 5588 5585 5583 5580
5768 5766 5763 5757 5751 5744 5737 5730 5720 5710 5700 5690 5683 5677 5673 5669 5664 5661 5657 5653 5648 5643 5636 5630 5625 5620 5612 5607 5605 5600 5594 5590 5588 5590 5587 5584 5581 5578 5575 5573 5569 5566 5563
5765 5760 5755 5748 5741 5733 5726 5718 5709 5699 5689 5681 5675 5668 5663 5658 5654 5650 5645 5641 5635 5629 5623 5618 5612 5607 5601 5593 5589 5585 5580 5575 5570 5568 5569 5567 5565 5563 5559 5557 5554 5550 5547
5757 5750 5745 5738 5729 5722 5714 5707 5698 5688 5679 5670 5664 5657 5650 5646 5642 5638 5633 5628 5621 5615 5610 5605 5600 5595 5590 5583 5576 5570 5565 5559 5555 5551 5549 5550 5550 5548 5545 5541 5538 5533 5530
5744 5738 5733 5725 5716 5709 5703 5697 5689 5680 5671 5662 5655 5647 5640 5635 5630 5625 5620 5614 5608 5603 5597 5592 5588 5584 5578 5572 5564 5558 5551 5545 5540 5536 5534 5533 5533 5533 5531 5527 5522 5518 5515